TimeMDT,TemperatureF,Dew PointF,Humidity,Sea Level PressureIn,VisibilityMPH,Wind Direction,Wind SpeedMPH,Gust SpeedMPH,PrecipitationIn,Events,Conditions,WindDirDegrees,DateUTC
12:55 AM,39.9,25.0,55,29.90,10.0,North,9.2,-,N/A,,Mostly Cloudy,350,2013-04-11 06:55:00
1:55 AM,37.9,21.9,53,29.91,10.0,Calm,Calm,-,N/A,,Partly Cloudy,0,2013-04-11 07:55:00
2:55 AM,39.9,21.0,47,29.89,10.0,WSW,6.9,-,N/A,,Overcast,250,2013-04-11 08:55:00
3:55 AM,37.9,21.9,53,29.90,10.0,South,3.5,-,N/A,,Overcast,170,2013-04-11 09:55:00
4:55 AM,39.0,21.9,50,29.91,10.0,Calm,Calm,-,N/A,,Overcast,0,2013-04-11 10:55:00
5:55 AM,37.9,23.0,55,29.92,10.0,NE,3.5,-,N/A,,Overcast,40,2013-04-11 11:55:00
6:55 AM,37.0,23.0,57,29.96,10.0,NW,4.6,-,N/A,,Overcast,320,2013-04-11 12:55:00
7:55 AM,39.0,21.9,50,29.98,10.0,Calm,Calm,-,N/A,,Clear,0,2013-04-11 13:55:00
8:55 AM,43.0,23.0,45,29.96,10.0,ENE,4.6,-,N/A,,Clear,60,2013-04-11 14:55:00
9:55 AM,45.0,18.0,34,29.96,10.0,Variable,3.5,-,N/A,,Clear,0,2013-04-11 15:55:00
11:55 AM,48.9,16.0,27,29.96,10.0,Calm,Calm,-,N/A,,Clear,0,2013-04-11 17:55:00
12:55 PM,51.1,16.0,25,29.93,10.0,South,10.4,-,N/A,,Clear,170,2013-04-11 18:55:00
1:55 PM,53.1,16.0,23,29.88,10.0,Variable,4.6,-,N/A,,Clear,0,2013-04-11 19:55:00
2:55 PM,55.0,14.0,20,29.83,10.0,South,5.8,-,N/A,,Clear,170,2013-04-11 20:55:00
3:55 PM,55.9,-0.9,10,29.81,10.0,NNW,15.0,23.0,N/A,,Clear,330,2013-04-11 21:55:00
4:55 PM,59.0,7.0,13,29.78,10.0,North,13.8,19.6,N/A,,Clear,360,2013-04-11 22:55:00
5:55 PM,57.0,7.0,14,29.79,10.0,North,17.3,-,N/A,,Clear,350,2013-04-11 23:55:00
6:55 PM,53.1,9.0,17,29.82,10.0,West,13.8,20.7,N/A,,Clear,280,2013-04-12 00:55:00
7:55 PM,51.1,10.0,19,29.83,10.0,WNW,10.4,-,N/A,,Mostly Cloudy,290,2013-04-12 01:55:00
8:55 PM,46.9,14.0,27,29.86,10.0,NNW,10.4,-,N/A,,Partly Cloudy,330,2013-04-12 02:55:00
9:55 PM,43.0,16.0,34,29.89,10.0,NW,12.7,-,N/A,,Clear,320,2013-04-12 03:55:00
10:55 PM,39.9,16.0,38,29.92,10.0,NNW,9.2,-,N/A,,Clear,330,2013-04-12 04:55:00
11:55 PM,39.0,17.1,41,29.94,10.0,North,9.2,-,N/A,,Clear,350,2013-04-12 05:55:00